Tracking 19636 objects as of 24-May-2019
HD Live streaming from Space Station
objects crossing your sky now

FENGYUN 1A

Track FENGYUN 1A now!
10-day predictions
FENGYUN 1A is classified as:


NORAD ID: 19467
Int'l Code: 1988-080A
Perigee: 880.6 km
Apogee: 899.9 km
Inclination: 99.2 °
Period: 102.6 minutes
Semi major axis: 7261 km
RCS: 2.4571 m2 (large)
Launch date: September 6, 1988
Source: People's Republic of China (PRC)
Launch site: Taiyaun Space Center, China (TSC)
aabbcc
Your satellite tracking list
Your tracking list is empty




NASA's NSSDC Master Catalog

Two Line Element Set (TLE):
1 19467U 88080A   19144.49670161  .00000025  00000-0  45852-4 0  9999
2 19467  99.2404 138.1535 0013269 273.0886  86.8761 14.03082691572169
Source of the keplerian elements: AFSPC